Regional Weather Roundup
Issued by NWS Green Bay, WI

Home | Current Version | Previous Version | Text Only | Print | Product List | Glossary On
Versions: 1 2 3 4 5 6 7 8 9 10 11 12 13 14 15 16 17 18 19 20 21 22 23 24 25 26 27 28 29 30 31 32 33 34 35 36 37 38 39 40 41 42 43 44 45 46 47 48 49 50
000
ASUS43 KGRB 291411
RWRGRB

NORTH-CENTRAL AND NORTHEAST WISCONSIN REGIONAL WEATHER ROUNDUP
NATIONAL WEATHER SERVICE GREEN BAY WI
900 AM CDT FRI MAY 29 2015

WIZ005-009-010>012-018-019-291500-
NORTH CENTRAL WISCONSIN

CITY           SKY/WX    TMP DP  RH WIND       PRES   REMARKS
IRONWOOD       CLOUDY    63  57  82 S7        29.85F
MANITOWISH WTR CLOUDY    63  59  87 S7        29.91S
ARBOR VITAE    PTSUNNY   65  59  82 S12       29.92F
EAGLE RIVER    CLOUDY    64  56  75 SW7       29.94R
LAND O LAKES   CLOUDY    66  57  73 S6        29.93F
RHINELANDER    CLOUDY    66  58  75 SW10G17   29.95S
PHILLIPS       CLOUDY    65  59  82 S12G20    29.91S
ANTIGO         CLOUDY    65  60  85 S9        29.97F
TOMAHAWK       CLOUDY    66  60  80 S5        29.94S
MERRILL        PTSUNNY   69  62  77 SW10G16   29.95S
$$

WIZ013-073-291500-
NORTHEAST WISCONSIN

CITY           SKY/WX    TMP DP  RH WIND       PRES   REMARKS
IRON MOUNTAIN  LGT RAIN  62  58  86 SE7       29.94F
MARINETTE      CLOUDY    64  55  72 S9        29.97S
OCONTO         CLOUDY    64  63  97 CALM      29.97S
$$

WIZ017-030-035>037-045-291500-
CENTRAL WISCONSIN

CITY           SKY/WX    TMP DP  RH WIND       PRES   REMARKS
MEDFORD        CLOUDY    65  61  87 S12G18    29.94S
WAUSAU         PTSUNNY   69  61  75 S10       29.94F
MOSINEE        MOSUNNY   66  63  88 S12G17    29.97S
MARSHFIELD     CLOUDY    67  61  81 S10       29.95R
WISC RAPIDS    MOSUNNY   68  62  81 S8        29.98R
STEVENS POINT  PTSUNNY   66  60  82 S13       29.98R
WAUPACA        CLOUDY    65  63  94 S6        29.99R
SHAWANO        CLOUDY    66  60  81 CALM      29.97R
CLINTONVILLE   DRIZZLE   63  61  94 S7        29.97R
$$

WIZ038-039-048-051-291500-
FOX VALLEY

CITY           SKY/WX    TMP DP  RH WIND       PRES   REMARKS
NWS GREEN BAY  LGT RAIN  67  61  81 S7        29.98S
APPLETON       DRIZZLE   64  63  94 SE9       29.99S
OSHKOSH        LGT RAIN  65  60  84 S12       29.98F
FOND DU LAC    CLOUDY    65  62  90 SE8       30.00F
$$

WIZ022-050-052-291500-
EAST CENTRAL WISCONSIN

CITY           SKY/WX    TMP DP  RH WIND       PRES   REMARKS
STURGEON BAY   CLOUDY    59  55  88 SE5       30.01F
MANITOWOC      LGT RAIN  60  55  83 E9        30.01S
SHEBOYGAN      LGT RAIN  65  61  87 S13       30.03R FOG
$$

LMZ563-521-522-541>543-291500-
LAKESHORE

STATION/POSITION TIME  TEMP    WIND        PRES    VSBY  WAVE
                       AIR SEA DIR/SP/G                  HT/PER
                 (UTC) (F)     (DEG/KT/KT) (MB)    (MI)  (FT/S)
SHEBOYGAN LKSHOR 1400   52     170/ 13/ 15 1017.2R
KEWAUNEE LKSHORE 1300   50     170/  8/ 10 1015.2F
ALGOMA MARINA    1323          190/  3/  4   N/A
NORTHPORT PIER   1300   61     170/ 10/ 15 1015.2S
N MID LAKE BUOY  1350   42 37  200/  6/  8 1016.3R         1
SISTER BAY LKSHO 1318   60     190/ 16/ 19   N/A
CHAMBERS ISLAND  1300   62     160/  5/ 10 1015.6R
MENOMINEE LKSHOR 1300   63     170/  8/ 10 1015.6F
$$


USA.gov is the U.S. government's official web portal to all federal, state and local government web resources and services.